This is the latest recevied weather packets stored in our database for station/object KB1FFS. If no packets are shown the sender has not sent any weather packets the latest 10 day(s).
| Time | Temp. | Humidity | Pressure | Rain* | Wind** | Luminosity | Snow |
|---|---|---|---|---|---|---|---|
| 1787874907 | 36.11° C | 35% | 1014.1 hPa | 0 mm | - | 65 W/m² | - |
| 1787874603 | 36.67° C | 35% | 1014 hPa | 0 mm | - | 74 W/m² | - |
| 1787874296 | 36.67° C | 35% | 1014.2 hPa | 0 mm | - | 99 W/m² | - |
| 1787873996 | 36.67° C | 35% | 1014 hPa | 0 mm | - | 138 W/m² | - |
| 1787873695 | 36.67° C | 36% | 1014.1 hPa | 0 mm | - | 98 W/m² | - |
| 1787873391 | 36.67° C | 36% | 1014 hPa | 0 mm | - | 176 W/m² | - |
| 1787873090 | 36.67° C | 36% | 1013.9 hPa | 0 mm | - | 123 W/m² | - |
| 1787872785 | 36.67° C | 35% | 1013.8 hPa | 0 mm | - | 94 W/m² | - |
| 1787872481 | 36.67° C | 35% | 1014.2 hPa | 0 mm | - | 95 W/m² | - |
| 1787872182 | 37.22° C | 34% | 1014.3 hPa | 0 mm | - | 98 W/m² | - |
| 1787871881 | 37.22° C | 33% | 1014.3 hPa | 0 mm | - | 110 W/m² | - |
| 1787871576 | 37.22° C | 32% | 1014 hPa | 0 mm | - | 115 W/m² | - |
| 1787871272 | 37.78° C | 31% | 1014.2 hPa | 0 mm | - | 270 W/m² | - |
| 1787870967 | 37.78° C | 30% | 1014.2 hPa | 0 mm | - | 110 W/m² | - |
| 1787870666 | 38.33° C | 31% | 1014.2 hPa | 0 mm | - | 336 W/m² | - |
| 1787870366 | 38.33° C | 30% | 1014.2 hPa | 0 mm | - | 338 W/m² | - |
| 1787870062 | 38.89° C | 31% | 1014.2 hPa | 0 mm | - | 258 W/m² | - |
| 1787869760 | 38.89° C | 30% | 1014.3 hPa | 0 mm | - | 370 W/m² | - |
| 1787869455 | 38.89° C | 32% | 1014.3 hPa | 0 mm | - | 383 W/m² | - |
| 1787869149 | 38.33° C | 31% | 1014.5 hPa | 0 mm | - | 394 W/m² | - |
| 1787868849 | 38.33° C | 31% | 1014.4 hPa | 0 mm | - | 441 W/m² | - |
| 1787868547 | 38.33° C | 31% | 1014.5 hPa | 0 mm | - | 441 W/m² | - |
| 1787868247 | 38.33° C | 30% | 1014.5 hPa | 0 mm | - | 451 W/m² | - |
| 1787867942 | 38.89° C | 31% | 1014.5 hPa | 0 mm | - | 463 W/m² | - |
| 1787867637 | 38.33° C | 32% | 1014.4 hPa | 0 mm | - | 481 W/m² | - |
* Rain latest hour (hover to see other rain measurements)
** Current wind speed in m/s (hover to see current wind gust speed)